Temp
-5 -5 -5 -5 -6 -5 -5 -6 -6 -6 -6 -7 -7 -6 -7 -7 -7 -6 -6 -6 -6 -7 -7 -7 -7 -7 -7 -7 -7 -7 -7 -7 -7 -7 -7 -8 -8 -9 -9 -9 -9 -9 -10
-5 -5 -5 -5 -5 -5 -5 -6 -6 -6 -6 -6 -7 -6 -7 -7 -7 -6 -6 -6 -6 -6 -6 -7 -7 -7 -7 -7 -7 -7 -7 -7 -7 -8 -8 -8 -8 -8 -8 -9 -10 -10 -10
-5 -5 -5 -5 -5 -5 -5 -6 -6 -6 -6 -6 -6 -6 -6 -6 -6 -6 -6 -6 -6 -6 -6 -7 -7 -7 -7 -6 -7 -6 -7 -7 -7 -7 -8 -8 -9 -8 -8 -8 -9 -10 -10
-6 -5 -5 -5 -5 -5 -5 -5 -6 -6 -6 -6 -6 -6 -6 -6 -5 -6 -6 -6 -6 -6 -6 -6 -7 -6 -6 -6 -6 -6 -6 -7 -7 -7 -7 -8 -8 -8 -9 -9 -9 -9 -10
-6 -5 -5 -6 -5 -5 -5 -5 -5 -6 -6 -6 -6 -5 -6 -6 -5 -6 -6 -6 -6 -6 -6 -6 -6 -6 -6 -6 -6 -6 -6 -6 -7 -7 -7 -7 -8 -8 -8 -9 -8 -9 -9
-6 -6 -6 -6 -6 -6 -6 -6 -5 -6 -6 -6 -6 -5 -6 -6 -5 -5 -6 -5 -5 -5 -6 -6 -5 -6 -6 -6 -6 -6 -6 -6 -7 -7 -7 -7 -7 -7 -8 -8 -8 -9 -9
-6 -6 -6 -6 -6 -6 -6 -6 -6 -5 -6 -6 -6 -6 -6 -6 -5 -5 -6 -5 -5 -5 -5 -6 -6 -6 -6 -6 -6 -6 -6 -6 -6 -6 -7 -7 -7 -7 -7 -7 -8 -8 -9
-7 -6 -6 -6 -6 -6 -6 -6 -6 -6 -6 -6 -6 -6 -6 -6 -6 -5 -6 -5 -5 -5 -5 -5 -6 -6 -6 -6 -6 -6 -6 -6 -7 -7 -7 -7 -7 -7 -7 -7 -7 -7 -8
-7 -6 -6 -6 -6 -6 -6 -6 -6 -6 -6 -6 -6 -6 -6 -6 -6 -5 -5 -5 -5 -6 -6 -6 -6 -6 -6 -6 -6 -6 -6 -6 -6 -7 -7 -7 -7 -7 -7 -7 -7 -8 -8
-7 -6 -6 -6 -6 -6 -6 -6 -6 -6 -6 -6 -6 -6 -6 -6 -6 -6 -6 -6 -6 -6 -6 -6 -6 -6 -6 -6 -6 -5 -6 -6 -6 -6 -7 -7 -7 -7 -7 -7 -7 -7 -8
-7 -7 -6 -6 -6 -6 -6 -6 -6 -6 -6 -6 -6 -6 -6 -6 -6 -6 -6 -5 -6 -6 -6 -5 -6 -5 -5 -5 -5 -6 -6 -6 -6 -6 -7 -7 -6 -7 -7 -7 -7 -7 -7
-7 -6 -6 -6 -6 -6 -6 -6 -6 -6 -6 -6 -6 -6 -6 -6 -6 -6 -6 -5 -5 -6 -6 -6 -5 -5 -5 -5 -5 -6 -6 -6 -6 -6 -6 -6 -6 -6 -7 -7 -7 -7 -7
-7 -6 -6 -6 -6 -6 -6 -6 -6 -6 -6 -6 -6 -6 -6 -6 -6 -6 -5 -5 -6 -6 -6 -6 -5 -6 -5 -5 -5 -5 -6 -6 -6 -7 -6 -7 -6 -6 -6 -7 -7 -7 -7
-7 -6 -7 -6 -6 -6 -6 -6 -6 -6 -6 -6 -6 -6 -6 -6 -6 -5 -5 -6 -6 -6 -6 -5 -5 -5 -5 -5 -5 -6 -5 -6 -6 -7 -7 -6 -6 -6 -7 -6 -6 -7 -6
-6 -7 -7 -6 -6 -6 -6 -6 -6 -6 -6 -6 -6 -6 -6 -6 -6 -6 -6 -6 -5 -6 -6 -5 -5 -5 -5 -5 -5 -5 -6 -6 -7 -7 -7 -6 -6 -6 -6 -7 -6 -6 -6
-6 -6 -6 -6 -6 -6 -6 -6 -6 -6 -6 -6 -6 -6 -6 -6 -6 -6 -6 -6 -6 -6 -5 -6 -6 -6 -5 -5 -5 -5 -6 -7 -7 -7 -7 -7 -6 -7 -7 -6 -5 -6 -6
-6 -6 -6 -6 -6 -6 -6 -6 -6 -6 -6 -6 -6 -6 -6 -6 -6 -6 -6 -6 -6 -6 -6 -6 -6 -6 -6 -5 -5 -5 -6 -7 -7 -7 -7 -7 -6 -6 -7 -7 -5 -5 -6
-6 -6 -6 -6 -6 -6 -6 -6 -6 -6 -6 -6 -6 -6 -6 -6 -6 -6 -6 -6 -6 -6 -6 -6 -6 -6 -6 -6 -5 -6 -6 -7 -7 -7 -7 -6 -7 -7 -6 -6 -5 -6 -6
-5 -6 -6 -6 -6 -6 -6 -6 -6 -6 -6 -6 -6 -6 -6 -6 -6 -6 -6 -6 -6 -6 -6 -6 -7 -6 -6 -6 -6 -6 -7 -7 -7 -7 -7 -7 -7 -7 -7 -6 -6 -5 -5
-5 -5 -5 -5 -6 -6 -6 -6 -6 -6 -6 -6 -6 -6 -6 -6 -6 -6 -6 -6 -7 -7 -6 -7 -7 -7 -7 -7 -7 -7 -7 -7 -7 -7 -7 -7 -7 -7 -7 -6 -6 -6 -6
-5 -5 -6 -6 -6 -6 -5 -6 -6 -6 -6 -6 -6 -6 -6 -7 -7 -6 -7 -7 -7 -7 -6 -7 -7 -7 -7 -7 -7 -7 -7 -7 -7 -7 -7 -7 -7 -7 -7 -7 -6 -6 -6
-6 -6 -6 -6 -5 -6 -6 -6 -5 -6 -6 -6 -6 -6 -6 -7 -7 -6 -7 -7 -7 -7 -7 -7 -7 -7 -7 -7 -7 -7 -6 -6 -7 -7 -7 -7 -8 -8 -7 -7 -7 -7 -7
-6 -6 -6 -6 -6 -6 -6 -6 -6 -6 -6 -6 -6 -6 -6 -6 -6 -7 -7 -7 -7 -7 -7 -7 -7 -7 -7 -8 -8 -7 -7 -7 -7 -7 -7 -7 -7 -7 -7 -7 -7 -7 -7
-6 -6 -6 -6 -6 -6 -6 -6 -6 -6 -6 -6 -6 -6 -6 -6 -6 -7 -7 -7 -7 -7 -7 -7 -7 -7 -7 -8 -8 -8 -8 -8 -7 -7 -7 -7 -6 -6 -7 -7 -7 -8 -7
-6 -5 -5 -5 -5 -6 -6 -6 -6 -6 -6 -5 -5 -6 -6 -6 -6 -6 -7 -7 -7 -7 -7 -7 -7 -7 -8 -8 -8 -8 -8 -8 -8 -8 -8 -7 -7 -6 -7 -7 -7 -7 -7
-5 -5 -5 -5 -5 -6 -6 -6 -6 -6 -5 -5 -5 -6 -6 -5 -6 -6 -6 -7 -7 -7 -7 -7 -7 -7 -8 -7 -7 -7 -7 -7 -7 -8 -7 -7 -7 -7 -6 -6 -6 -6 -6
Height
5888 5889 5890 5890 5891 5891 5892 5892 5892 5894 5894 5894 5894 5893 5892 5892 5891 5890 5891 5890 5890 5890 5889 5889 5889 5888 5887 5887 5886 5885 5884 5885 5886 5885 5884 5886 5887 5887 5888 5889 5889 5890 5891
5888 5889 5891 5892 5893 5894 5895 5893 5893 5896 5897 5896 5896 5894 5893 5893 5892 5893 5893 5893 5893 5892 5891 5890 5890 5889 5888 5887 5887 5886 5885 5886 5886 5885 5884 5885 5886 5888 5888 5889 5889 5890 5890
5888 5889 5891 5893 5893 5895 5896 5895 5894 5896 5897 5897 5896 5895 5895 5895 5895 5895 5895 5896 5895 5895 5893 5892 5891 5891 5890 5887 5887 5887 5887 5886 5887 5887 5886 5886 5885 5885 5887 5888 5889 5889 5889
5889 5890 5890 5892 5894 5895 5896 5895 5896 5897 5897 5896 5896 5896 5896 5897 5897 5898 5898 5897 5897 5897 5897 5895 5893 5892 5891 5889 5889 5888 5888 5888 5888 5888 5888 5887 5885 5884 5886 5887 5889 5890 5889
5891 5891 5892 5892 5893 5894 5895 5895 5896 5897 5897 5897 5896 5897 5897 5898 5899 5900 5900 5900 5899 5899 5899 5898 5897 5896 5894 5893 5892 5890 5889 5888 5889 5888 5887 5886 5885 5884 5884 5886 5889 5890 5889
5891 5892 5892 5893 5894 5895 5895 5895 5897 5897 5898 5898 5897 5898 5900 5901 5901 5902 5902 5902 5901 5900 5900 5900 5900 5899 5898 5897 5896 5895 5893 5891 5890 5889 5889 5888 5888 5888 5885 5887 5888 5889 5889
5892 5893 5893 5894 5895 5896 5896 5896 5897 5899 5899 5899 5899 5900 5901 5903 5904 5904 5904 5904 5903 5903 5902 5902 5902 5901 5900 5899 5899 5898 5896 5894 5892 5892 5891 5890 5888 5888 5887 5887 5886 5886 5887
5892 5893 5894 5895 5896 5897 5897 5898 5899 5901 5902 5902 5902 5903 5904 5906 5906 5906 5907 5906 5905 5905 5905 5905 5905 5904 5902 5901 5900 5899 5898 5897 5895 5895 5892 5891 5889 5887 5887 5888 5887 5888 5887
5892 5894 5896 5897 5897 5899 5899 5900 5901 5903 5904 5904 5905 5906 5907 5909 5908 5908 5909 5909 5908 5908 5908 5908 5907 5906 5904 5903 5901 5900 5898 5898 5897 5896 5894 5892 5890 5890 5889 5889 5888 5888 5887
5893 5895 5897 5898 5899 5900 5901 5901 5903 5904 5906 5907 5908 5909 5909 5910 5910 5910 5911 5911 5911 5911 5910 5909 5908 5906 5904 5903 5901 5899 5898 5897 5896 5895 5895 5894 5892 5891 5889 5888 5888 5887 5887
5894 5896 5897 5899 5900 5901 5902 5903 5904 5906 5908 5909 5910 5911 5911 5912 5912 5912 5913 5913 5912 5913 5912 5911 5909 5907 5905 5903 5900 5899 5899 5898 5897 5896 5894 5895 5892 5892 5891 5888 5888 5888 5887
5894 5896 5897 5899 5901 5902 5904 5905 5906 5907 5909 5911 5912 5912 5912 5914 5914 5914 5915 5915 5914 5914 5913 5912 5909 5908 5905 5904 5900 5900 5899 5898 5897 5896 5896 5894 5891 5892 5890 5890 5889 5888 5888
5894 5896 5898 5899 5901 5903 5905 5906 5907 5908 5910 5913 5913 5914 5914 5915 5916 5916 5917 5917 5916 5915 5914 5912 5911 5909 5907 5905 5902 5900 5899 5897 5896 5896 5896 5894 5893 5891 5890 5889 5887 5886 5887
5895 5896 5898 5900 5902 5904 5906 5907 5908 5910 5911 5913 5914 5915 5916 5917 5917 5917 5918 5919 5918 5916 5916 5913 5911 5909 5908 5906 5902 5900 5899 5897 5898 5896 5895 5894 5892 5890 5887 5886 5886 5884 5884
5894 5896 5899 5901 5903 5905 5907 5907 5909 5910 5912 5914 5915 5916 5917 5918 5919 5919 5919 5920 5919 5918 5916 5914 5912 5909 5907 5904 5901 5899 5897 5897 5897 5896 5895 5894 5892 5890 5888 5884 5882 5884 5885
5893 5896 5900 5901 5903 5905 5907 5908 5910 5911 5912 5914 5916 5918 5919 5919 5919 5920 5920 5920 5919 5919 5917 5915 5913 5910 5906 5903 5899 5897 5895 5897 5898 5897 5897 5895 5893 5892 5888 5879 5869 5881 5884
5894 5897 5900 5901 5903 5906 5906 5908 5910 5911 5913 5915 5916 5918 5920 5920 5920 5920 5919 5919 5919 5919 5918 5916 5913 5911 5908 5904 5900 5899 5897 5898 5900 5899 5898 5897 5895 5893 5889 5880 5872 5858 5881
5895 5897 5899 5901 5903 5905 5906 5907 5909 5910 5912 5914 5917 5919 5920 5920 5920 5920 5920 5919 5919 5918 5918 5916 5915 5914 5911 5908 5905 5902 5901 5901 5902 5901 5900 5899 5896 5894 5891 5885 5878 5877 5875
5897 5898 5899 5901 5902 5905 5906 5907 5909 5910 5912 5914 5916 5918 5920 5920 5920 5920 5918 5917 5918 5919 5919 5918 5917 5916 5914 5912 5909 5907 5906 5905 5904 5904 5903 5901 5899 5897 5896 5893 5889 5886 5889
5897 5898 5899 5901 5902 5903 5905 5906 5907 5909 5911 5914 5916 5917 5918 5918 5918 5919 5918 5918 5918 5919 5919 5919 5919 5918 5916 5914 5912 5911 5910 5909 5908 5907 5906 5904 5902 5900 5898 5897 5895 5893 5892
5897 5898 5899 5900 5902 5903 5903 5906 5907 5909 5911 5914 5916 5916 5916 5916 5917 5918 5919 5919 5919 5919 5919 5920 5920 5919 5918 5917 5915 5915 5914 5913 5911 5910 5908 5905 5904 5903 5902 5901 5900 5898 5897
5894 5896 5899 5900 5901 5902 5902 5904 5907 5910 5911 5912 5914 5914 5916 5916 5916 5918 5918 5919 5918 5919 5919 5920 5921 5920 5920 5918 5917 5916 5915 5915 5912 5910 5908 5906 5904 5904 5904 5903 5902 5901 5901
5893 5894 5896 5898 5899 5901 5902 5903 5906 5908 5910 5911 5912 5913 5914 5915 5916 5916 5917 5917 5917 5918 5919 5921 5921 5921 5920 5920 5919 5919 5916 5913 5912 5910 5909 5908 5907 5907 5906 5906 5905 5904 5903
5892 5893 5894 5896 5898 5900 5901 5903 5904 5906 5909 5911 5911 5912 5913 5913 5913 5914 5915 5916 5917 5918 5919 5921 5920 5920 5921 5921 5920 5918 5917 5915 5913 5911 5909 5906 5906 5907 5908 5906 5905 5904 5904
5890 5892 5893 5895 5896 5898 5900 5902 5904 5905 5907 5909 5909 5910 5911 5912 5912 5913 5913 5915 5916 5917 5918 5920 5920 5921 5921 5921 5921 5920 5919 5918 5916 5915 5912 5910 5908 5906 5906 5906 5906 5905 5904
5888 5890 5892 5893 5894 5896 5898 5901 5903 5905 5905 5906 5907 5907 5909 5910 5910 5912 5914 5915 5916 5917 5920 5921 5921 5922 5922 5922 5922 5922 5922 5921 5919 5917 5915 5913 5912 5911 5909 5908 5907 5905 5904
Wind_Speed
7 11 10 11 10 12 15 17 17 16 14 13 12 13 14 14 17 18 19 19 18 18 18 19 18 16 14 12 10 8 7 9 8 7 7 6 7 8 6 5 6 5 8
6 7 10 12 12 13 13 15 16 14 13 14 12 11 12 12 15 16 16 17 18 19 19 19 19 19 15 11 11 8 6 8 9 7 5 4 4 5 6 6 5 4 7
5 3 8 11 12 12 14 14 13 11 10 12 13 13 13 12 15 16 16 16 18 19 20 20 21 23 25 18 10 11 11 12 13 9 4 3 1 3 6 5 5 5 3
3 2 6 9 11 11 12 13 12 11 10 12 13 14 13 16 16 17 19 20 20 19 19 19 19 19 20 24 22 15 10 9 16 11 10 10 11 4 6 3 4 5 3
4 4 5 7 9 10 9 11 10 10 10 12 13 13 15 18 18 17 17 19 18 20 20 19 18 18 19 19 17 21 20 9 12 14 18 16 16 11 3 4 4 4 5
6 6 8 8 8 8 8 10 10 9 11 13 14 15 17 17 17 16 16 18 19 19 18 16 18 19 19 20 19 17 17 17 13 13 13 15 12 13 4 2 2 2 3
7 8 9 10 10 8 9 12 12 11 10 12 14 14 14 14 16 16 17 17 17 17 16 16 16 18 18 17 15 15 15 15 13 12 11 12 14 16 18 4 7 6 2
7 8 10 11 11 11 14 16 15 12 9 11 13 15 14 14 16 16 15 17 19 17 16 16 18 18 17 17 15 14 15 14 13 11 12 10 12 12 15 10 13 13 5
10 9 11 12 13 15 17 17 14 10 9 12 13 13 15 14 15 16 15 15 15 16 16 16 16 17 16 16 15 16 12 12 13 10 11 11 13 10 6 9 4 8 5
11 11 12 13 13 14 15 15 12 11 13 12 13 15 14 13 13 13 13 15 15 16 18 17 16 17 15 13 13 12 10 8 10 8 7 10 9 9 11 5 3 2 6
12 11 13 13 13 12 14 14 12 12 11 11 12 13 11 11 12 13 12 13 14 15 15 18 16 15 14 14 12 10 9 6 7 10 9 10 12 13 13 5 6 5 5
13 13 15 14 13 13 13 14 12 11 10 11 11 10 8 8 10 11 11 13 14 14 17 13 14 16 15 14 10 10 7 5 4 9 12 8 8 10 9 9 9 7 4
15 14 14 14 13 13 13 13 12 11 11 12 10 8 7 7 8 10 11 13 13 12 16 13 13 14 14 14 12 13 8 6 5 8 8 9 9 8 7 8 8 7 10
13 15 16 14 14 15 14 13 12 14 13 12 10 8 6 6 7 9 10 11 12 14 13 12 14 15 13 12 14 13 9 5 6 6 7 9 9 8 5 9 9 8 2
13 14 16 15 13 15 14 14 14 14 13 10 7 6 5 6 7 8 8 9 11 11 10 11 12 12 13 14 14 12 6 2 1 3 7 9 11 12 10 11 11 6 3
14 15 16 15 15 15 13 13 13 12 9 7 5 3 4 5 6 5 8 9 11 11 9 9 9 11 14 15 14 10 5 2 1 6 9 12 13 14 15 14 11 11 9
17 17 15 15 15 14 12 12 11 11 9 7 5 2 3 4 4 4 7 8 8 8 8 7 7 10 15 16 14 7 13 14 8 12 14 15 19 22 23 22 24 24 16
17 16 17 15 15 13 11 10 11 11 9 8 6 3 1 3 4 5 6 7 7 7 5 6 8 9 15 19 15 17 21 22 20 20 20 21 23 26 31 31 27 20 6
15 16 17 16 13 13 12 11 12 11 9 9 6 4 1 3 4 5 7 7 5 4 5 7 9 9 12 16 19 21 21 21 20 19 20 22 25 28 30 31 31 23 26
15 14 16 14 13 12 11 13 11 10 9 10 7 7 3 3 6 7 6 4 2 3 8 11 12 11 15 16 18 19 19 19 19 18 18 19 20 23 26 27 29 29 26
13 11 13 12 11 11 9 11 12 11 9 8 7 5 4 4 7 7 5 2 2 7 12 13 14 13 13 15 16 16 15 14 13 13 13 13 15 17 18 20 23 24 22
12 12 13 12 10 10 9 7 6 8 7 6 7 5 5 7 10 6 6 5 7 11 14 13 12 13 10 10 11 10 11 10 10 9 9 10 10 12 15 16 18 17 17
12 12 14 14 13 11 9 8 7 8 8 7 8 7 8 8 8 6 8 8 12 13 13 13 11 10 7 9 8 8 7 7 8 9 9 8 7 10 13 15 17 17 15
18 15 15 13 12 11 10 11 11 8 7 8 8 8 8 7 7 8 8 12 15 12 13 11 10 8 6 6 7 8 8 12 13 13 14 13 8 7 10 11 13 14 13
20 18 18 16 14 13 13 12 11 11 9 9 9 8 7 8 5 7 10 16 18 15 14 12 10 8 6 8 9 9 9 10 11 11 13 18 16 11 10 11 13 14 12
22 22 20 19 17 15 15 13 13 12 11 11 10 9 9 8 6 11 17 19 18 15 13 10 9 5 8 10 8 9 8 7 8 11 13 15 17 16 15 14 12 12 13
Wind_Direction
84 106 117 123 124 119 112 108 103 99 101 97 92 91 90 87 87 85 80 73 69 72 72 73 67 64 62 72 74 64 59 64 67 64 57 71 87 101 109 90 110 106 152
45 106 121 130 130 128 119 108 104 102 106 107 102 94 87 87 83 81 84 80 73 73 67 65 61 59 57 68 76 80 79 58 53 42 35 43 95 109 119 117 123 145 150
46 106 124 133 134 129 125 112 103 97 101 105 104 100 90 89 85 81 83 85 81 72 68 64 70 64 60 63 70 72 80 71 62 60 33 349 15 149 132 125 127 144 202
104 126 133 132 130 126 122 112 109 100 102 101 98 95 92 91 88 85 83 81 75 72 69 69 66 66 60 62 61 62 62 95 69 81 68 38 1 332 150 138 138 156 167
126 147 149 134 127 123 112 103 103 98 103 100 97 96 95 93 87 81 76 75 71 68 67 66 61 57 57 57 59 58 58 53 87 58 49 48 43 20 342 170 189 175 135
155 164 155 145 137 129 122 115 113 107 105 96 89 107 100 89 82 77 76 70 66 62 61 59 52 54 52 59 57 55 56 72 69 63 46 48 32 30 60 335 327 221 156
174 171 156 149 143 138 128 127 127 122 110 95 88 103 100 84 76 72 76 68 60 61 57 55 54 55 51 51 53 57 57 61 54 46 35 31 43 32 32 60 6 318 288
187 179 163 153 143 129 121 128 129 130 122 108 97 91 92 84 77 74 71 61 64 59 55 51 44 42 42 44 49 47 47 48 49 46 47 37 29 40 18 16 346 334 295
174 183 171 154 143 129 121 124 126 131 138 122 104 90 92 84 74 72 63 58 58 57 50 48 45 41 36 38 43 44 48 41 28 24 27 26 20 7 360 12 354 326 325
174 175 166 161 150 136 131 133 133 128 129 126 109 102 94 89 79 66 56 50 48 48 39 42 41 36 36 35 38 39 47 43 34 21 13 29 13 357 2 293 342 263 339
171 171 161 160 154 143 140 140 140 134 131 131 117 111 95 90 82 72 63 53 42 44 34 33 27 23 26 23 24 18 32 15 14 14 31 8 355 356 2 323 347 330 301
170 171 160 158 158 154 148 149 144 137 137 136 126 112 104 85 78 68 59 46 33 33 30 31 16 18 16 18 4 352 355 357 31 14 8 1 360 336 353 2 334 341 313
169 164 158 159 160 156 156 152 145 140 134 134 122 113 98 80 70 61 55 46 29 32 25 19 14 21 14 9 355 357 334 317 355 357 13 352 339 338 337 328 339 319 283
169 160 160 166 164 161 157 147 144 138 134 136 131 119 105 76 54 57 50 41 31 23 28 15 13 17 26 2 348 335 342 325 352 29 6 353 355 349 343 318 325 336 280
162 159 165 167 169 168 162 148 145 148 145 143 140 119 99 69 51 48 42 34 35 33 30 17 14 6 4 360 343 344 323 314 71 69 19 355 350 345 334 291 277 291 237
156 164 170 170 171 173 170 158 161 162 164 165 163 130 78 51 56 45 28 16 34 38 37 23 23 9 8 1 349 354 357 61 336 69 39 16 11 9 360 315 280 249 215
158 163 172 170 169 176 176 171 175 176 176 177 185 146 67 43 40 26 17 12 42 45 39 35 39 33 28 23 29 45 89 85 90 65 58 47 45 37 29 8 359 296 185
168 170 175 174 172 179 180 177 186 188 185 202 196 168 110 31 11 2 344 8 23 52 51 65 72 52 51 51 58 71 81 83 76 72 65 55 49 44 42 39 46 82 119
176 179 184 182 181 188 186 184 190 189 190 211 223 251 300 7 330 336 347 346 29 59 83 107 86 75 68 63 68 71 78 81 81 78 71 62 55 50 47 51 62 62 89
192 195 193 189 185 185 185 190 200 208 207 222 234 259 283 321 319 326 317 303 71 129 129 119 110 95 86 79 79 77 80 83 81 77 72 69 64 57 53 51 58 63 70
207 201 202 198 196 198 199 196 200 211 222 229 225 263 293 305 299 294 268 241 161 165 142 125 118 103 95 93 89 86 82 76 71 67 63 55 51 50 56 60 60 64 66
217 216 212 217 218 222 220 204 197 205 212 221 241 253 264 267 271 262 250 213 167 161 142 131 126 112 107 99 90 84 75 62 48 38 29 26 34 46 47 51 59 63 65
214 219 226 220 223 218 211 219 225 224 222 226 244 251 263 257 252 255 243 200 168 161 141 136 133 117 113 99 89 63 59 47 28 18 4 346 4 32 40 36 35 39 51
213 214 220 222 223 218 210 221 228 236 246 238 247 253 252 246 247 246 218 185 164 161 148 143 142 131 118 90 71 45 51 61 58 42 32 28 15 16 29 16 17 15 21
219 214 212 208 209 216 223 224 227 231 237 246 240 232 224 236 228 208 185 177 171 168 167 163 159 144 120 102 94 74 77 58 43 34 25 33 44 46 35 21 7 2 4
231 225 219 213 210 210 220 218 224 231 242 246 235 218 221 201 182 164 168 180 177 175 173 179 167 149 138 112 93 93 78 67 58 60 47 37 34 33 35 32 23 15 10